Temperature
13 13 13 13 13 13 13 13 12 12 12 12 12 12 12 12 12 12 12 12 12 12 12 12 12 12 12 12 12 12 12 12 12 12 12 12 12 12 12 12 12 12 12
13 12 12 12 12 12 12 12 12 12 12 12 12 12 12 12 12 12 12 12 12 12 12 12 12 12 12 12 12 12 12 12 12 12 12 12 12 11 11 11 11 11 11
12 12 12 12 12 12 12 12 12 12 12 12 12 12 12 11 11 11 11 12 12 12 12 12 11 11 11 11 11 11 11 11 11 11 11 11 11 11 11 11 11 11 11
12 12 12 12 12 12 12 12 11 11 11 11 11 11 11 11 11 11 11 11 11 11 11 11 11 11 11 11 11 11 11 11 11 11 11 11 11 11 11 11 11 10 10
12 12 12 11 11 11 11 11 11 11 11 11 11 11 11 11 11 11 11 11 11 11 11 11 11 11 11 11 11 11 11 11 11 11 10 10 10 10 10 10 10 10 10
11 11 11 11 11 11 11 11 11 11 11 11 11 10 10 10 10 10 10 10 10 10 10 10 11 11 11 10 10 10 10 10 10 10 10 10 10 10 10 10 10 9 9
11 11 11 11 11 11 11 11 10 10 10 10 10 10 10 10 10 10 10 10 10 10 10 10 10 10 10 10 10 10 10 10 10 10 10 9 9 9 9 9 9 9 9
11 11 11 11 11 11 10 10 10 10 10 10 10 10 9 9 9 9 9 9 9 9 9 9 9 9 9 10 10 10 9 9 9 9 9 9 9 9 8 9 8 8 8
10 10 10 10 10 10 10 10 10 10 10 9 9 9 9 8 8 9 9 9 9 9 9 9 9 9 9 9 9 9 9 9 9 9 9 8 8 8 8 8 8 8 8
10 10 10 10 10 10 10 10 10 10 9 9 9 9 9 9 8 8 8 8 8 8 8 8 8 8 8 8 8 9 8 8 8 8 8 8 8 8 8 7 8 8 8
9 9 9 9 9 9 9 9 9 9 9 9 9 8 8 8 8 8 7 7 7 8 8 8 8 8 8 8 8 8 8 8 8 8 8 7 7 7 7 7 7 7 7
9 9 9 9 9 9 9 9 9 9 8 8 8 8 8 8 8 7 7 7 7 7 7 7 7 7 7 7 8 7 7 7 7 7 7 7 7 7 7 7 7 7 7
8 8 8 8 8 8 8 8 8 8 8 8 8 8 8 8 7 7 7 6 6 6 6 7 7 7 7 7 7 7 7 7 7 7 7 6 6 6 6 6 6 6 6
8 8 8 8 8 8 8 8 8 8 8 8 8 7 7 7 7 7 6 6 5 5 5 6 6 6 6 6 6 6 6 6 6 6 6 6 6 6 6 6 6 6 5
8 8 8 8 7 7 7 7 7 7 7 7 7 7 7 7 7 6 6 6 5 5 5 5 5 6 6 6 6 6 6 6 5 5 5 5 5 5 5 5 5 5 5
7 7 7 7 7 7 7 7 7 7 7 7 6 6 6 6 6 6 6 5 5 5 5 5 5 5 5 5 5 5 5 5 5 5 5 5 5 4 4 4 4 4 4
7 7 7 7 6 7 6 6 6 6 6 6 6 6 5 5 6 5 5 5 5 4 4 4 5 5 4 5 5 4 4 4 4 4 4 4 4 4 4 4 4 4 4
6 6 6 6 6 6 6 6 6 6 5 5 5 5 5 5 5 5 5 4 4 4 4 4 4 4 4 4 4 4 4 3 3 4 3 3 3 3 3 3 3 3 3
6 6 6 6 6 6 5 5 5 5 5 5 5 5 5 4 4 4 4 4 4 4 3 3 3 3 3 3 3 3 3 3 3 3 3 3 3 3 3 3 2 2 2
5 5 5 5 5 5 5 5 5 5 4 4 4 4 4 4 4 4 3 3 3 3 3 3 3 3 3 3 2 2 2 2 2 2 2 2 2 2 2 2 2 2 2
5 5 5 5 5 5 5 4 4 4 4 4 4 4 3 3 3 3 3 3 2 2 2 2 2 2 2 2 2 2 1 1 1 1 1 1 1 2 2 2 2 2 1
5 4 4 4 4 4 4 4 4 4 3 3 3 3 3 3 2 2 2 2 2 2 2 2 2 1 2 1 1 1 1 0 0 1 1 1 1 1 1 1 1 1 1
4 4 4 4 4 4 3 3 3 3 3 3 3 2 2 2 2 2 2 2 2 1 1 1 1 1 1 1 0 0 -0 -0 -0 -0 -0 -0 0 0 0 0 0 0 0
4 3 3 3 3 3 3 3 3 2 2 2 2 2 2 2 2 1 1 1 1 1 1 1 0 0 0 0 -0 -0 -1 -1 -1 -1 -1 -1 -0 -0 -0 0 -0 -0 -0
3 3 3 3 3 3 2 2 2 2 2 2 2 2 1 1 1 1 1 1 1 1 0 0 -0 -0 -0 -0 -1 -1 -1 -1 -1 -1 -1 -1 -1 -1 -1 -1 -1 -1 -1
2 2 2 2 2 2 2 1 1 1 1 1 1 1 1 1 1 0 0 0 0 0 -0 -0 -0 -0 -1 -1 -1 -1 -1 -2 -2 -2 -2 -2 -2 -2 -2 -2 -1 -1 -2
Wind_Speed
5 5 5 5 5 4 4 2 2 3 4 4 4 5 5 7 7 8 8 9 8 6 6 5 5 5 5 5 4 5 5 5 5 5 5 5 6 6 6 6 6 6 6
6 5 4 4 4 5 4 3 3 3 3 4 4 5 6 7 7 8 8 8 8 7 6 6 6 5 5 4 4 4 4 4 4 4 4 5 5 5 6 6 6 6 7
6 5 4 3 4 5 5 4 4 4 3 4 4 5 5 6 6 6 7 7 7 7 6 6 5 5 4 3 3 3 4 4 4 4 4 5 5 5 5 5 6 6 6
7 5 4 3 4 5 4 3 3 3 3 3 3 2 3 4 5 6 6 7 7 6 5 5 6 5 4 4 3 3 3 3 3 3 4 4 5 6 5 5 6 6 6
7 6 4 4 5 4 3 2 2 3 3 3 2 2 2 3 3 5 5 6 6 6 5 4 5 5 4 4 4 3 3 3 3 3 3 4 4 5 6 6 6 6 7
6 6 4 4 4 3 2 2 3 3 3 2 2 3 2 2 3 3 3 5 6 6 5 4 4 4 3 3 3 3 3 3 3 3 3 4 4 5 5 6 6 6 7
6 5 4 3 3 3 3 3 3 3 2 2 3 2 2 2 2 2 2 3 4 5 5 5 4 3 2 1 2 2 2 2 2 2 3 4 4 5 6 6 7 7 7
6 5 4 3 3 3 3 3 3 2 1 1 2 1 1 2 2 1 1 2 2 3 3 4 4 4 3 1 1 1 1 2 3 3 3 4 5 6 7 7 8 8 8
6 5 4 3 2 2 3 3 3 3 2 1 1 2 2 1 0 1 0 1 1 1 1 3 3 3 3 3 2 1 1 3 4 3 4 4 5 6 7 8 8 9 9
6 5 4 4 3 2 3 2 2 2 2 1 0 1 1 2 2 0 1 1 1 1 1 2 2 3 2 3 2 1 2 3 3 4 4 5 6 7 8 8 9 9 9
5 5 5 4 3 2 2 2 2 2 2 2 1 0 1 1 1 2 1 1 2 1 1 1 1 1 1 1 1 2 2 3 4 4 5 6 6 7 8 9 9 9 9
4 4 4 4 3 2 2 2 2 2 2 2 1 1 1 1 1 1 1 1 1 2 2 1 1 1 1 0 1 2 2 4 4 5 6 6 7 8 9 9 9 9 9
3 4 4 3 3 3 3 2 2 2 2 2 2 1 1 0 0 0 1 1 1 2 1 1 1 1 1 1 3 3 4 5 5 6 7 8 8 9 9 10 10 10 10
4 4 4 4 4 4 3 3 2 2 2 2 2 1 1 0 0 0 1 1 1 2 2 3 1 1 2 2 3 4 4 7 8 8 9 9 9 9 10 10 11 11 11
4 5 4 3 3 3 3 3 2 2 2 2 2 2 1 1 1 0 1 2 2 3 3 3 2 2 2 3 5 5 6 8 9 10 10 11 11 11 11 11 11 12 12
4 5 4 4 3 3 3 2 2 2 3 2 2 3 2 1 1 1 1 2 2 3 4 2 2 2 3 5 7 7 7 9 10 11 12 12 13 13 12 12 12 12 12
5 5 5 4 4 4 3 3 3 3 3 3 3 4 3 2 2 2 2 2 2 2 4 4 2 2 2 3 5 7 8 8 9 11 13 13 14 14 13 13 13 13 13
5 5 5 5 5 4 4 4 4 4 3 3 3 3 4 3 3 2 2 3 3 3 3 5 4 3 3 4 4 5 7 9 9 11 13 14 14 14 14 13 14 14 14
4 4 5 5 5 4 4 4 4 4 4 4 4 4 4 3 3 3 3 3 3 3 3 4 5 3 3 3 4 5 5 5 8 10 11 13 14 14 14 14 14 14 14
5 4 4 4 4 4 4 4 4 4 4 4 4 4 4 5 5 4 4 4 3 3 3 3 4 4 4 4 3 4 5 4 5 7 10 12 13 13 14 15 14 13 13
4 4 4 4 4 3 4 4 4 4 4 3 3 4 4 5 6 5 5 4 4 4 3 4 5 4 4 4 4 4 5 5 5 4 4 6 7 8 10 12 12 13 13
4 4 4 4 4 4 5 6 5 4 4 4 5 4 4 5 6 8 8 8 7 6 5 5 5 6 7 5 4 4 5 5 6 3 3 6 5 5 6 9 12 14 14
4 3 3 4 4 5 6 7 7 5 4 5 5 5 5 5 6 5 7 8 9 11 11 8 7 8 7 6 5 6 6 7 8 5 4 7 4 6 6 10 13 14 13
3 3 4 4 4 5 7 7 6 4 4 5 5 5 6 5 6 6 5 6 6 7 8 7 7 7 7 6 6 6 7 7 7 5 3 6 6 6 7 8 12 13 13
3 3 3 4 4 5 7 7 6 3 4 5 5 5 6 6 8 9 6 6 6 7 9 11 12 11 12 12 9 5 5 5 7 6 3 4 5 5 5 5 8 11 12
3 3 3 4 4 5 7 8 7 3 4 4 4 5 8 9 10 9 6 6 7 7 5 6 7 8 8 10 11 7 5 6 6 6 3 3 4 3 4 3 4 6 7
Wind_Direction
127 124 115 114 112 111 105 81 69 70 69 71 69 67 74 86 91 97 93 84 80 82 77 74 86 96 96 93 86 77 69 64 60 56 49 40 33 28 23 19 15 11 8
117 118 116 112 108 108 105 90 81 70 63 65 62 65 69 76 84 95 106 95 83 77 77 67 65 75 85 93 88 78 72 63 52 48 42 40 32 28 23 20 15 11 9
116 113 115 114 104 107 99 84 82 74 67 61 56 58 65 68 78 92 103 104 99 82 73 60 52 56 60 72 79 81 77 67 53 51 48 38 25 16 12 8 1 1 359
120 113 113 108 104 99 89 86 82 81 70 65 55 52 65 68 68 80 87 93 101 98 82 66 50 54 59 61 71 81 75 72 64 54 42 30 19 13 7 2 358 353 348
117 113 110 112 111 98 91 96 95 96 90 71 62 61 68 74 68 80 82 87 93 102 97 83 66 61 62 46 51 62 63 63 67 52 36 22 12 6 4 2 359 353 347
115 109 110 109 108 105 97 99 108 101 104 100 72 60 52 78 74 69 77 84 82 84 87 86 75 63 57 39 33 44 54 51 50 29 19 11 6 359 351 350 346 342 341
115 115 115 108 105 114 118 107 109 107 90 92 81 57 20 55 90 68 71 79 75 71 65 63 61 51 48 31 19 34 37 25 11 356 357 351 348 343 342 339 341 336 333
117 120 118 118 118 122 117 110 111 111 108 101 109 115 77 2 354 33 77 92 74 59 54 53 51 38 36 37 359 19 7 350 333 325 319 325 329 328 325 326 328 328 324
122 115 115 118 117 123 132 124 123 123 145 154 78 116 134 188 332 340 75 90 86 58 37 46 45 33 30 36 47 26 335 322 322 326 327 324 320 319 316 318 320 319 319
125 121 118 116 120 115 129 137 125 132 134 156 56 41 98 132 144 246 337 25 58 38 7 19 22 31 32 28 1 330 301 307 312 314 317 318 322 324 324 323 323 321 319
126 127 125 118 111 108 121 129 129 130 140 146 138 108 63 50 120 161 235 291 339 317 329 357 351 355 346 355 333 306 296 299 295 299 305 313 317 319 321 322 322 320 317
127 132 132 125 118 113 119 128 127 133 140 137 133 138 141 142 198 163 218 237 271 287 296 297 296 280 283 287 301 302 298 303 300 299 301 305 308 312 314 314 313 314 315
149 156 144 143 140 134 132 129 124 137 144 145 157 163 153 184 189 164 194 245 271 280 273 274 258 267 283 321 304 292 293 295 294 292 295 300 303 307 307 305 304 305 306
158 151 144 144 141 140 142 137 136 145 138 153 172 155 143 168 142 183 194 209 278 277 264 256 280 257 279 296 301 294 295 294 291 286 287 295 299 298 298 297 298 299 299
146 142 145 147 144 143 143 145 151 160 162 173 180 176 180 184 173 223 208 191 197 254 264 248 256 271 292 288 294 288 279 284 284 281 282 286 287 287 288 290 293 293 292
146 149 156 160 158 156 153 149 158 174 169 179 181 184 193 202 187 199 218 236 226 226 254 246 240 268 300 296 288 283 278 282 281 279 278 280 281 283 282 284 286 287 288
159 164 169 171 170 171 167 165 176 184 185 192 201 199 202 202 195 209 227 236 246 237 256 278 274 269 274 288 295 288 284 280 276 279 279 280 281 282 279 280 282 282 283
168 171 172 176 178 180 181 182 190 193 191 196 209 207 206 205 205 214 221 232 241 241 245 269 281 276 269 273 282 288 289 283 276 279 278 278 279 278 278 278 279 279 280
168 173 173 181 186 186 188 193 193 196 200 203 206 217 216 204 222 227 226 233 243 252 246 257 273 279 281 277 280 282 282 283 281 280 282 282 280 279 279 280 280 279 278
172 179 183 188 193 194 194 194 191 199 206 209 210 218 222 214 219 222 234 238 242 247 248 252 266 277 279 274 268 276 287 281 281 284 281 279 280 281 281 280 278 279 278
175 181 183 187 190 195 198 193 196 205 208 215 221 225 226 225 229 230 234 233 236 244 249 253 263 272 273 271 268 268 279 288 281 271 270 274 275 275 276 278 279 277 277
175 177 190 192 198 213 207 210 210 208 210 216 227 233 233 235 241 247 248 247 241 241 242 250 260 261 266 266 269 270 277 285 286 271 261 278 271 270 270 268 275 279 279
178 185 196 198 206 213 219 223 222 217 216 224 228 231 243 239 246 241 253 259 261 260 254 248 252 256 261 260 262 272 271 271 272 269 275 281 273 272 272 274 280 281 280
184 191 201 204 211 223 226 232 232 228 227 231 231 230 233 237 238 239 242 250 255 259 257 253 248 254 258 256 248 256 266 278 279 270 250 273 279 276 283 273 274 277 281
191 198 203 206 216 232 234 238 241 229 234 242 241 236 235 236 244 246 246 249 260 265 266 261 260 263 267 270 270 271 272 279 283 278 249 252 273 286 282 273 267 271 279
192 201 214 218 222 232 240 244 244 229 237 248 252 246 244 244 247 248 243 240 252 262 261 266 266 270 268 268 267 254 248 261 275 277 245 235 271 294 294 277 272 276 282
Height
1524 1526 1528 1530 1533 1535 1536 1538 1539 1541 1542 1543 1544 1545 1546 1547 1548 1548 1549 1549 1550 1551 1552 1552 1553 1553 1553 1554 1554 1554 1554 1554 1554 1554 1554 1554 1554 1554 1553 1553 1552 1552 1551
1522 1525 1527 1530 1532 1534 1535 1537 1539 1540 1541 1542 1543 1544 1545 1546 1547 1547 1548 1548 1549 1550 1551 1552 1552 1552 1552 1552 1553 1553 1553 1553 1553 1553 1553 1552 1552 1552 1552 1551 1551 1550 1549
1522 1524 1527 1529 1531 1533 1534 1536 1537 1539 1540 1541 1542 1543 1544 1545 1546 1546 1547 1547 1548 1549 1549 1550 1551 1551 1551 1551 1551 1551 1551 1551 1551 1551 1551 1551 1550 1550 1550 1549 1549 1548 1547
1521 1523 1526 1528 1530 1532 1533 1535 1536 1537 1539 1540 1541 1542 1543 1544 1545 1545 1545 1546 1546 1547 1547 1548 1548 1549 1549 1550 1550 1550 1550 1549 1549 1549 1549 1549 1548 1548 1548 1547 1547 1546 1545
1520 1522 1524 1527 1529 1531 1532 1534 1535 1536 1538 1539 1540 1541 1542 1543 1543 1544 1544 1544 1545 1545 1546 1546 1546 1547 1547 1548 1548 1548 1548 1548 1548 1547 1547 1547 1546 1546 1545 1545 1544 1543 1543
1518 1521 1523 1526 1528 1529 1531 1532 1534 1535 1537 1538 1538 1539 1540 1541 1542 1542 1543 1543 1543 1543 1544 1544 1545 1545 1545 1546 1546 1546 1546 1546 1545 1545 1545 1545 1544 1544 1543 1542 1542 1541 1540
1516 1519 1522 1524 1526 1528 1529 1531 1532 1534 1535 1536 1537 1537 1539 1540 1540 1541 1541 1541 1541 1542 1542 1542 1543 1543 1543 1543 1543 1543 1543 1543 1543 1543 1543 1542 1542 1541 1540 1540 1539 1538 1537
1515 1517 1520 1522 1524 1526 1528 1529 1530 1531 1533 1534 1535 1536 1537 1539 1539 1539 1539 1539 1540 1540 1540 1540 1541 1541 1541 1541 1541 1541 1541 1541 1541 1540 1540 1539 1539 1538 1538 1537 1536 1535 1534
1513 1516 1518 1520 1522 1524 1526 1527 1528 1530 1531 1532 1533 1535 1535 1536 1537 1537 1537 1538 1538 1538 1538 1538 1538 1539 1538 1538 1538 1538 1538 1538 1538 1537 1537 1536 1536 1535 1535 1534 1533 1532 1530
1511 1514 1515 1518 1520 1522 1523 1525 1526 1528 1529 1530 1531 1532 1534 1534 1535 1535 1535 1535 1535 1536 1536 1536 1536 1536 1536 1536 1536 1536 1536 1535 1535 1534 1534 1533 1533 1532 1531 1530 1529 1528 1527
1509 1511 1514 1515 1517 1519 1521 1523 1524 1525 1527 1527 1528 1529 1530 1532 1532 1532 1532 1532 1533 1533 1533 1533 1533 1533 1533 1533 1533 1533 1533 1532 1532 1531 1531 1530 1529 1529 1528 1527 1526 1525 1523
1506 1509 1511 1513 1515 1517 1519 1520 1522 1523 1524 1525 1526 1527 1528 1529 1529 1530 1529 1529 1529 1530 1530 1530 1530 1530 1530 1530 1530 1529 1529 1529 1528 1528 1527 1526 1526 1525 1524 1523 1522 1521 1520
1503 1506 1508 1510 1512 1514 1516 1518 1519 1520 1521 1522 1523 1524 1525 1526 1527 1527 1527 1526 1526 1526 1526 1526 1527 1527 1526 1526 1526 1526 1526 1525 1525 1524 1523 1523 1522 1521 1520 1519 1518 1516 1515
1501 1503 1505 1507 1509 1510 1512 1514 1515 1516 1518 1519 1520 1521 1521 1522 1523 1524 1524 1524 1522 1522 1522 1522 1523 1523 1523 1523 1522 1522 1521 1521 1520 1520 1519 1518 1517 1516 1515 1514 1513 1512 1510
1498 1501 1503 1504 1506 1507 1509 1510 1512 1513 1514 1516 1517 1517 1518 1519 1520 1520 1520 1521 1521 1519 1518 1518 1519 1519 1519 1518 1518 1517 1517 1516 1516 1515 1514 1513 1512 1511 1510 1509 1508 1506 1505
1495 1497 1499 1501 1503 1504 1505 1507 1508 1510 1511 1512 1513 1513 1514 1514 1515 1516 1517 1517 1517 1516 1514 1513 1514 1514 1514 1514 1513 1513 1512 1511 1511 1510 1509 1508 1507 1506 1505 1504 1502 1501 1500
1492 1494 1496 1498 1499 1501 1502 1503 1504 1506 1507 1508 1509 1509 1509 1510 1511 1511 1512 1513 1513 1513 1511 1509 1510 1509 1509 1509 1508 1507 1506 1506 1505 1504 1504 1503 1501 1500 1499 1498 1497 1495 1494
1490 1491 1493 1494 1496 1497 1498 1500 1500 1502 1503 1503 1505 1505 1505 1506 1506 1507 1508 1508 1508 1508 1507 1505 1504 1504 1504 1504 1503 1502 1501 1500 1500 1499 1498 1497 1496 1495 1493 1492 1490 1489 1488
1486 1488 1489 1491 1492 1494 1495 1496 1497 1498 1498 1499 1500 1501 1501 1502 1502 1502 1503 1503 1503 1503 1503 1502 1500 1499 1499 1499 1498 1497 1496 1494 1494 1493 1492 1491 1490 1489 1487 1486 1485 1483 1482
1483 1484 1486 1487 1489 1490 1491 1492 1493 1494 1494 1495 1496 1497 1497 1497 1497 1498 1498 1498 1498 1498 1498 1497 1495 1494 1494 1494 1493 1491 1490 1489 1488 1487 1486 1485 1484 1483 1481 1480 1479 1477 1475
1479 1481 1482 1483 1485 1486 1487 1488 1489 1490 1490 1490 1491 1492 1492 1493 1493 1493 1493 1493 1493 1493 1493 1492 1490 1489 1489 1488 1488 1486 1485 1483 1481 1481 1480 1478 1477 1476 1475 1473 1472 1470 1469
1475 1476 1478 1479 1480 1482 1483 1484 1485 1485 1485 1486 1486 1486 1487 1487 1488 1488 1488 1488 1489 1488 1487 1487 1485 1484 1483 1483 1483 1482 1480 1477 1475 1476 1474 1472 1472 1469 1468 1467 1466 1464 1463
1471 1472 1474 1475 1476 1478 1479 1480 1480 1481 1481 1481 1481 1481 1481 1482 1482 1482 1482 1482 1482 1482 1483 1482 1480 1479 1478 1478 1478 1476 1474 1472 1470 1469 1468 1465 1465 1463 1462 1461 1460 1458 1457
1467 1468 1469 1470 1472 1473 1474 1475 1476 1476 1476 1476 1476 1476 1476 1476 1477 1477 1476 1476 1476 1476 1476 1476 1475 1474 1473 1473 1472 1471 1469 1466 1464 1463 1463 1460 1458 1457 1455 1454 1453 1452 1451
1463 1464 1465 1466 1467 1468 1469 1470 1471 1470 1470 1470 1471 1471 1471 1471 1471 1472 1471 1471 1470 1470 1470 1470 1469 1468 1467 1467 1466 1465 1463 1461 1458 1456 1456 1455 1452 1450 1448 1447 1446 1446 1444
1459 1460 1461 1462 1463 1463 1464 1465 1465 1465 1464 1464 1465 1465 1465 1465 1466 1466 1466 1465 1464 1463 1463 1463 1462 1461 1461 1460 1460 1459 1457 1455 1453 1450 1450 1449 1447 1445 1441 1440 1440 1439 1438